Location: Coll
(42.4728°N, 0.7714°E)
Time: 06:48:09
(UTC+00:00)

KORONAS-FOTON - Pass Details

Date: 23 October 2020
Orbit: 504 x 533 km, 82.4° (Epoch: 23 November)

Event Time Altitude Azimuth Distance (km) Brightness Sun altitude
Rises 04:26:02 0° 182° (S) 2,664 7.4 -21.6°
Reaches altitude 10° 04:28:10 10° 181° (S) 1,778 6.5 -21.2°
Maximum altitude 04:32:04 74° 96° (E) 559 4.0 -20.5°
Drops below altitude 10° 04:35:59 10° 12° (NNE) 1,786 6.7 -19.8°
Sets 04:38:08 0° 11° (N) 2,677 7.6 -19.4°
